Regional Weather Roundup
Issued by NWS

Home | Current Version | Previous Version | Text Only | Print | Product List | Glossary Off
Versions: 1 2 3 4 5 6 7 8 9 10 11 12 13 14 15 16 17 18 19 20 21 22 23 24 25 26 27 28 29 30 31 32 33 34 35 36 37 38 39 40 41 42 43 44 45 46 47 48 49 50

000
ASUS43 KBIS 232210
RWRND

NORTH DAKOTA REGIONAL WEATHER ROUNDUP
NATIONAL WEATHER SERVICE BISMARCK ND
400 PM CST SUN NOV 23 2014

NOTE: "FAIR" INDICATES FEW OR NO CLOUDS BELOW 12,000 FEET WITH NO
SIGNIFICANT WEATHER AND/OR OBSTRUCTIONS TO VISIBILITY.


NDZ001>003-009>011-017-232300-
NORTHWEST NORTH DAKOTA

CITY           SKY/WX    TMP DP  RH WIND       PRES   REMARKS
WILLISTON      CLOUDY    21  11  65 NW23G29   29.78R WCI   5
MINOT          LGT SNOW  17  10  74 NW21G31   29.65R WCI   0
MINOT AFB      FLURRIES  17  10  74 NW23      29.65R WCI  -1
$$

NDZ018>021-031>035-040>046-232300-
SOUTHWEST NORTH DAKOTA

CITY           SKY/WX    TMP DP  RH WIND       PRES   REMARKS
BISMARCK       CLOUDY    23  14  68 NW23G31   29.64R WCI   7
DICKINSON      CLOUDY    24  16  71 NW31G39   29.66R WCI   7
GARRISON         N/A     19  10  68 NW28G38   29.64R WCI   1
HETTINGER ARPT CLOUDY    26  18  71 NW32G44   29.69R WCI   9
$$

NDZ004>008-012>016-024-026-027-054-232300-
NORTHEAST NORTH DAKOTA

CITY           SKY/WX    TMP DP  RH WIND       PRES   REMARKS
GRAND FORKS    CLOUDY    25  22  88 N16       29.49R WCI  12
GRND FRKS AFB  FRZ DRZL  25  25  99 N13       29.50R WCI  14
DEVILS LAKE    CLOUDY    19  10  68 N18G26    29.51R WCI   4
$$

NDZ022-023-025-028>030-036>039-047>053-232300-
SOUTHEAST NORTH DAKOTA

CITY           SKY/WX    TMP DP  RH WIND       PRES   REMARKS
FARGO          CLOUDY    34  22  61 W18       29.48R
JAMESTOWN      CLOUDY    23  16  74 NW26G39   29.51R WCI   6
$$




USA.gov is the U.S. government's official web portal to all federal, state and local government web resources and services.